Time,TemperatureF,DewpointF,PressureIn,WindDirection,WindDirectionDegrees,WindSpeedMPH,WindSpeedGustMPH,Humidity,HourlyPrecipIn,Conditions,Clouds,dailyrainin,SolarRadiationWatts/m^2,SoftwareType,DateUTC
2013-02-05 00:09:00,56.7,53.0,30.07,ESE,122,0.0,0.0,86,0.00,,,0.00,0,weatherlink.com 1.10,2013-02-05 05:09:00,
2013-02-05 00:24:00,56.5,52.0,30.07,ESE,122,0.0,0.0,86,0.00,,,0.00,0,weatherlink.com 1.10,2013-02-05 05:24:00,
2013-02-05 00:39:00,56.3,53.0,30.06,ESE,122,0.0,0.0,87,0.00,,,0.00,0,weatherlink.com 1.10,2013-02-05 05:39:00,
2013-02-05 00:54:00,56.3,53.0,30.06,ESE,122,0.0,0.0,87,0.00,,,0.00,0,weatherlink.com 1.10,2013-02-05 05:54:00,
2013-02-05 01:09:00,56.2,52.0,30.06,ESE,122,0.0,0.0,87,0.00,,,0.00,0,weatherlink.com 1.10,2013-02-05 06:09:00,
2013-02-05 01:24:00,56.0,52.0,30.06,ESE,122,0.0,0.0,87,0.00,,,0.00,0,weatherlink.com 1.10,2013-02-05 06:24:00,
2013-02-05 01:39:00,55.9,52.0,30.06,ESE,122,0.0,0.0,88,0.00,,,0.00,0,weatherlink.com 1.10,2013-02-05 06:39:00,
2013-02-05 01:54:00,55.6,52.0,30.05,ESE,122,0.0,0.0,88,0.00,,,0.00,0,weatherlink.com 1.10,2013-02-05 06:54:00,
2013-02-05 02:09:00,55.2,52.0,30.05,ESE,122,0.0,0.0,88,0.00,,,0.00,0,weatherlink.com 1.10,2013-02-05 07:09:00,
2013-02-05 02:24:00,55.1,52.0,30.05,ESE,122,0.0,0.0,89,0.00,,,0.00,0,weatherlink.com 1.10,2013-02-05 07:24:00,
2013-02-05 02:39:00,54.8,52.0,30.05,ESE,122,0.0,0.0,89,0.00,,,0.00,0,weatherlink.com 1.10,2013-02-05 07:39:00,
2013-02-05 02:54:00,54.8,52.0,30.04,ESE,122,0.0,0.0,89,0.00,,,0.00,0,weatherlink.com 1.10,2013-02-05 07:54:00,
2013-02-05 03:09:00,54.5,51.0,30.04,ESE,122,0.0,0.0,89,0.00,,,0.00,0,weatherlink.com 1.10,2013-02-05 08:09:00,
2013-02-05 03:24:00,54.3,52.0,30.04,ESE,122,0.0,0.0,90,0.00,,,0.00,0,weatherlink.com 1.10,2013-02-05 08:24:00,
2013-02-05 03:39:00,54.3,52.0,30.04,ESE,122,0.0,0.0,90,0.00,,,0.00,0,weatherlink.com 1.10,2013-02-05 08:39:00,
2013-02-05 03:54:00,53.8,51.0,30.04,ESE,122,0.0,0.0,90,0.00,,,0.00,0,weatherlink.com 1.10,2013-02-05 08:54:00,
2013-02-05 04:09:00,53.5,51.0,30.04,ESE,122,0.0,0.0,90,0.00,,,0.00,0,weatherlink.com 1.10,2013-02-05 09:09:00,
2013-02-05 04:24:00,53.6,51.0,30.03,ESE,122,0.0,0.0,90,0.00,,,0.00,0,weatherlink.com 1.10,2013-02-05 09:24:00,
2013-02-05 04:39:00,53.3,51.0,30.04,ESE,122,0.0,0.0,91,0.00,,,0.00,0,weatherlink.com 1.10,2013-02-05 09:39:00,
2013-02-05 04:54:00,53.3,51.0,30.03,ESE,122,0.0,0.0,91,0.00,,,0.00,0,weatherlink.com 1.10,2013-02-05 09:54:00,
2013-02-05 05:09:00,53.7,51.0,30.03,ESE,122,0.0,0.0,91,0.00,,,0.00,0,weatherlink.com 1.10,2013-02-05 10:09:00,
2013-02-05 05:24:00,53.6,51.0,30.04,ESE,122,0.0,0.0,91,0.00,,,0.00,0,weatherlink.com 1.10,2013-02-05 10:24:00,
2013-02-05 05:39:00,53.5,51.0,30.04,ESE,122,0.0,0.0,91,0.00,,,0.00,0,weatherlink.com 1.10,2013-02-05 10:39:00,
2013-02-05 05:54:00,53.4,51.0,30.04,ESE,122,0.0,0.0,91,0.00,,,0.00,0,weatherlink.com 1.10,2013-02-05 10:54:00,
2013-02-05 06:09:00,53.3,51.0,30.05,ESE,122,0.0,0.0,91,0.00,,,0.00,0,weatherlink.com 1.10,2013-02-05 11:09:00,
2013-02-05 06:24:00,53.3,51.0,30.05,ESE,122,0.0,0.0,91,0.00,,,0.00,0,weatherlink.com 1.10,2013-02-05 11:24:00,
2013-02-05 06:39:00,53.1,51.0,30.06,ESE,122,0.0,0.0,91,0.00,,,0.00,0,weatherlink.com 1.10,2013-02-05 11:39:00,
2013-02-05 06:54:00,52.8,50.0,30.06,ESE,122,0.0,0.0,91,0.00,,,0.00,0,weatherlink.com 1.10,2013-02-05 11:54:00,
2013-02-05 07:09:00,52.8,51.0,30.06,ESE,122,0.0,0.0,92,0.00,,,0.00,7,weatherlink.com 1.10,2013-02-05 12:09:00,
2013-02-05 07:24:00,53.2,51.0,30.06,ESE,122,0.0,0.0,92,0.00,,,0.00,19,weatherlink.com 1.10,2013-02-05 12:24:00,
2013-02-05 07:39:00,55.3,53.0,30.06,ESE,122,0.0,0.0,93,0.00,,,0.00,72,weatherlink.com 1.10,2013-02-05 12:39:00,
2013-02-05 07:54:00,58.1,56.0,30.07,ESE,122,0.0,0.0,92,0.00,,,0.00,125,weatherlink.com 1.10,2013-02-05 12:54:00,
2013-02-05 08:10:00,59.8,57.0,30.07,ESE,122,0.0,1.0,89,0.00,,,0.00,171,weatherlink.com 1.10,2013-02-05 13:10:00,
2013-02-05 08:24:00,62.9,57.0,30.07,ESE,122,0.0,1.0,81,0.00,,,0.00,214,weatherlink.com 1.10,2013-02-05 13:24:00,
2013-02-05 08:39:00,65.5,57.0,30.07,ESE,122,0.0,1.0,74,0.00,,,0.00,260,weatherlink.com 1.10,2013-02-05 13:39:00,
2013-02-05 08:55:00,66.8,57.0,30.07,ESE,122,1.0,1.0,72,0.00,,,0.00,308,weatherlink.com 1.10,2013-02-05 13:55:00,
2013-02-05 09:10:00,69.0,59.0,30.08,ESE,122,0.0,1.0,70,0.00,,,0.00,364,weatherlink.com 1.10,2013-02-05 14:10:00,
2013-02-05 09:25:00,71.1,57.0,30.08,ESE,122,0.0,2.0,62,0.00,,,0.00,425,weatherlink.com 1.10,2013-02-05 14:25:00,
2013-02-05 09:40:00,73.4,59.0,30.08,South,178,0.0,3.0,60,0.00,,,0.00,476,weatherlink.com 1.10,2013-02-05 14:40:00,
2013-02-05 09:55:00,73.7,58.0,30.08,SSE,157,1.0,5.0,59,0.00,,,0.00,515,weatherlink.com 1.10,2013-02-05 14:55:00,
2013-02-05 10:25:00,73.7,58.0,30.08,ESE,108,1.0,6.0,59,0.00,,,0.00,582,weatherlink.com 1.10,2013-02-05 15:25:00,
2013-02-05 10:40:00,73.6,57.0,30.09,ESE,105,3.0,9.0,56,0.00,,,0.00,621,weatherlink.com 1.10,2013-02-05 15:40:00,
2013-02-05 10:55:00,74.0,57.0,30.08,ENE,74,4.0,7.0,56,0.00,,,0.00,643,weatherlink.com 1.10,2013-02-05 15:55:00,
2013-02-05 11:10:00,74.3,57.0,30.08,ESE,102,4.0,8.0,56,0.00,,,0.00,675,weatherlink.com 1.10,2013-02-05 16:10:00,
2013-02-05 11:26:00,75.6,58.0,30.08,ESE,117,4.0,10.0,54,0.00,,,0.00,703,weatherlink.com 1.10,2013-02-05 16:26:00,
2013-02-05 11:40:00,75.0,59.0,30.07,SE,127,8.0,10.0,57,0.00,,,0.00,724,weatherlink.com 1.10,2013-02-05 16:40:00,
2013-02-05 11:56:00,74.0,58.0,30.07,ESE,111,1.0,5.0,57,0.00,,,0.00,752,weatherlink.com 1.10,2013-02-05 16:56:00,
2013-02-05 12:11:00,75.0,60.0,30.06,South,169,1.0,7.0,60,0.00,,,0.00,798,weatherlink.com 1.10,2013-02-05 17:11:00,
2013-02-05 12:26:00,74.9,59.0,30.06,SSE,164,1.0,6.0,59,0.00,,,0.00,223,weatherlink.com 1.10,2013-02-05 17:26:00,
2013-02-05 12:40:00,75.4,60.0,30.05,SE,127,2.0,10.0,60,0.00,,,0.00,963,weatherlink.com 1.10,2013-02-05 17:40:00,
2013-02-05 12:55:00,75.6,60.0,30.04,SSE,148,3.0,9.0,58,0.00,,,0.00,912,weatherlink.com 1.10,2013-02-05 17:55:00,
2013-02-05 13:11:00,76.1,60.0,30.04,SE,134,1.0,8.0,58,0.00,,,0.00,290,weatherlink.com 1.10,2013-02-05 18:11:00,
2013-02-05 13:26:00,74.7,60.0,30.03,ENE,65,9.0,9.0,61,0.00,,,0.00,814,weatherlink.com 1.10,2013-02-05 18:26:00,
2013-02-05 13:41:00,76.2,61.0,30.03,SSE,166,1.0,7.0,60,0.00,,,0.00,777,weatherlink.com 1.10,2013-02-05 18:41:00,
2013-02-05 13:56:00,74.3,60.0,30.02,SE,128,2.0,8.0,62,0.00,,,0.00,151,weatherlink.com 1.10,2013-02-05 18:56:00,
2013-02-05 14:11:00,73.9,60.0,30.02,ESE,103,2.0,8.0,63,0.00,,,0.00,204,weatherlink.com 1.10,2013-02-05 19:11:00,
2013-02-05 14:26:00,74.5,61.0,30.02,ENE,78,4.0,8.0,64,0.00,,,0.00,758,weatherlink.com 1.10,2013-02-05 19:26:00,
2013-02-05 14:41:00,74.9,61.0,30.02,ESE,116,3.0,8.0,63,0.00,,,0.00,227,weatherlink.com 1.10,2013-02-05 19:41:00,
2013-02-05 14:56:00,75.6,62.0,30.02,SE,131,2.0,7.0,63,0.00,,,0.00,592,weatherlink.com 1.10,2013-02-05 19:56:00,
2013-02-05 15:11:00,75.5,61.0,30.02,East,96,1.0,6.0,62,0.00,,,0.00,541,weatherlink.com 1.10,2013-02-05 20:11:00,
2013-02-05 15:26:00,74.2,61.0,30.01,SE,136,3.0,9.0,64,0.00,,,0.00,469,weatherlink.com 1.10,2013-02-05 20:26:00,
2013-02-05 15:41:00,73.4,61.0,30.01,East,98,6.0,7.0,66,0.00,,,0.00,146,weatherlink.com 1.10,2013-02-05 20:41:00,
2013-02-05 15:56:00,73.7,62.0,30.00,East,94,5.0,7.0,66,0.00,,,0.00,98,weatherlink.com 1.10,2013-02-05 20:56:00,
2013-02-05 16:11:00,73.4,62.0,30.01,ESE,116,4.0,5.0,67,0.00,,,0.00,105,weatherlink.com 1.10,2013-02-05 21:11:00,
2013-02-05 16:26:00,73.1,61.0,30.01,SE,126,2.0,6.0,67,0.00,,,0.00,72,weatherlink.com 1.10,2013-02-05 21:26:00,
2013-02-05 16:41:00,72.9,62.0,30.01,East,98,2.0,7.0,68,0.00,,,0.00,111,weatherlink.com 1.10,2013-02-05 21:41:00,
2013-02-05 16:56:00,73.2,62.0,30.01,ENE,75,3.0,10.0,68,0.00,,,0.00,95,weatherlink.com 1.10,2013-02-05 21:56:00,
2013-02-05 17:11:00,73.0,62.0,30.01,ESE,119,1.0,7.0,69,0.00,,,0.00,56,weatherlink.com 1.10,2013-02-05 22:11:00,
2013-02-05 17:26:00,72.6,62.0,30.00,ESE,105,0.0,8.0,69,0.00,,,0.00,28,weatherlink.com 1.10,2013-02-05 22:26:00,
2013-02-05 17:41:00,72.1,62.0,30.00,ESE,121,2.0,6.0,71,0.00,,,0.00,21,weatherlink.com 1.10,2013-02-05 22:41:00,
2013-02-05 17:56:00,71.7,62.0,30.00,ESE,123,1.0,3.0,72,0.00,,,0.00,11,weatherlink.com 1.10,2013-02-05 22:56:00,
2013-02-05 18:11:00,71.5,62.0,30.00,ESE,108,1.0,4.0,73,0.00,,,0.00,0,weatherlink.com 1.10,2013-02-05 23:11:00,
2013-02-05 18:26:00,71.2,63.0,30.00,SE,126,1.0,3.0,74,0.00,,,0.00,0,weatherlink.com 1.10,2013-02-05 23:26:00,
2013-02-05 18:41:00,70.9,63.0,30.00,ESE,108,1.0,3.0,75,0.00,,,0.00,0,weatherlink.com 1.10,2013-02-05 23:41:00,
2013-02-05 18:56:00,70.8,63.0,30.01,ESE,115,0.0,6.0,75,0.00,,,0.00,0,weatherlink.com 1.10,2013-02-05 23:56:00,
2013-02-05 19:11:00,70.6,63.0,30.01,ESE,115,0.0,2.0,76,0.00,,,0.00,0,weatherlink.com 1.10,2013-02-06 00:11:00,
2013-02-05 19:26:00,70.2,63.0,30.02,ESE,115,0.0,2.0,77,0.00,,,0.00,0,weatherlink.com 1.10,2013-02-06 00:26:00,
2013-02-05 19:41:00,70.1,63.0,30.02,ESE,121,0.0,2.0,78,0.00,,,0.00,0,weatherlink.com 1.10,2013-02-06 00:41:00,
2013-02-05 19:56:00,69.8,63.0,30.02,ESE,121,1.0,1.0,78,0.00,,,0.00,0,weatherlink.com 1.10,2013-02-06 00:56:00,
2013-02-05 20:11:00,69.4,63.0,30.03,ESE,121,0.0,1.0,79,0.00,,,0.00,0,weatherlink.com 1.10,2013-02-06 01:11:00,
2013-02-05 20:26:00,68.9,62.0,30.03,ESE,121,0.0,1.0,79,0.00,,,0.00,0,weatherlink.com 1.10,2013-02-06 01:26:00,
2013-02-05 20:41:00,68.5,62.0,30.03,ESE,121,0.0,0.0,80,0.00,,,0.00,0,weatherlink.com 1.10,2013-02-06 01:41:00,
2013-02-05 20:56:00,68.0,62.0,30.03,ESE,121,0.0,0.0,80,0.00,,,0.00,0,weatherlink.com 1.10,2013-02-06 01:56:00,
2013-02-05 21:11:00,67.5,62.0,30.03,ESE,121,0.0,0.0,81,0.00,,,0.00,0,weatherlink.com 1.10,2013-02-06 02:11:00,
2013-02-05 21:26:00,67.0,61.0,30.03,ESE,121,0.0,0.0,82,0.00,,,0.00,0,weatherlink.com 1.10,2013-02-06 02:26:00,
2013-02-05 21:41:00,66.4,61.0,30.04,ESE,121,0.0,0.0,83,0.00,,,0.00,0,weatherlink.com 1.10,2013-02-06 02:41:00,
2013-02-05 21:56:00,65.8,61.0,30.04,ESE,121,0.0,0.0,83,0.00,,,0.00,0,weatherlink.com 1.10,2013-02-06 02:56:00,
2013-02-05 22:11:00,65.2,60.0,30.04,ESE,121,0.0,0.0,84,0.00,,,0.00,0,weatherlink.com 1.10,2013-02-06 03:11:00,
2013-02-05 22:26:00,65.0,60.0,30.04,ESE,121,0.0,0.0,85,0.00,,,0.00,0,weatherlink.com 1.10,2013-02-06 03:26:00,
2013-02-05 22:41:00,64.4,60.0,30.05,ESE,121,0.0,0.0,86,0.00,,,0.00,0,weatherlink.com 1.10,2013-02-06 03:41:00,
2013-02-05 22:56:00,64.0,60.0,30.05,ESE,121,0.0,0.0,86,0.00,,,0.00,0,weatherlink.com 1.10,2013-02-06 03:56:00,
2013-02-05 23:11:00,63.8,60.0,30.05,ESE,121,0.0,0.0,87,0.00,,,0.00,0,weatherlink.com 1.10,2013-02-06 04:11:00,
2013-02-05 23:26:00,63.5,60.0,30.05,ESE,121,0.0,1.0,87,0.00,,,0.00,0,weatherlink.com 1.10,2013-02-06 04:26:00,
2013-02-05 23:41:00,63.0,59.0,30.04,ESE,121,0.0,0.0,88,0.00,,,0.00,0,weatherlink.com 1.10,2013-02-06 04:41:00,
2013-02-05 23:56:00,62.7,59.0,30.04,ESE,121,0.0,0.0,88,0.00,,,0.00,0,weatherlink.com 1.10,2013-02-06 04:56:00,